Flag for Jordan Weather past 2 weeks in Amman, Jordan

Now
57 °F

Thundershowers. Passing clouds.


Feels Like: 57 °F
Forecast: 50 / 63 °F
Wind: 5 mph from Southeast

Location: Amman Airport

Current Time: Mar 29, 2015 at 3:14:45 AM

Latest Report: Mar 29, 2015 at 2:00 AM


Visibility: 3 mi

Pressure: 29.92 "Hg

Humidity: 77%

Dew point: 50 °F

Location of AmmanLocation

Historic Weather in Amman — Graph

°F

Amman temperature yesterday

Maximum temperature yesterday: 73 °F (at 12:00 PM)
Minimum temperature yesterday: 57 °F (at 7:00 AM)
Average temperature yesterday: 66 °F

Past Weeks' High & Low Weather Summary

 TemperatureHumidityPressure
High77 °F (Mar 27, 4:00 PM)93% (Mar 23, 4:00 AM)30.18 "Hg (Mar 23, 4:00 AM)
Low39 °F (Mar 23, 5:00 AM)13% (Mar 24, 10:00 AM)29.89 "Hg (Mar 28, 9:00 AM)
Average56 °F54%30.05 "Hg
* Reported Mar 14 1:00 AM — Mar 29 2:00 AM, Amman, Weather by CustomWeather, © 2015

Note: Actual official high and low records may vary slightly from our data, if they occured in-between our weather recording intervals... More about our weather records

Advertising

Amman weather history for previous 24 hours

 ConditionsComfort  
Time TempWeatherWind HumidityBarometerVisibility
2:00 AM
Sun, Mar 29
57 °FThundershowers. Passing clouds.5 mph77%29.92 "Hg3 mi
1:00 AM59 °FThundershowers. Passing clouds.5 mph59%29.92 "Hg3 mi
12:00 AM61 °FThundershowers. Passing clouds.7 mph55%29.92 "Hg3 mi
11:00 PM
Sat, Mar 28
63 °FThunderstorms. Passing clouds.6 mph52%29.92 "Hg3 mi
10:00 PM64 °FHaze.5 mph43%29.92 "Hg3 mi
9:00 PM66 °FHaze.5 mph40%29.92 "Hg3 mi
8:00 PM66 °FHaze.14 mph40%29.95 "Hg3 mi
7:00 PM66 °FHaze.14 mph40%29.92 "Hg3 mi
6:00 PM68 °FHaze.14 mph38%29.95 "Hg3 mi
5:00 PM68 °FHaze.14 mph43%29.92 "Hg2 mi
4:00 PM70 °FHaze.14 mph40%29.92 "Hg2 mi
3:00 PM73 °FHaze.14 mph36%29.92 "Hg2 mi
2:00 PM73 °FRain. Duststorm.16 mph31%29.89 "Hg2 mi
1:00 PM73 °FSnow flurries. Haze.9 mph31%29.89 "Hg2 mi
12:00 PM73 °FSnow flurries. Haze.5 mph31%29.89 "Hg2 mi
11:00 AM68 °FPartly sunny.7 mph24%29.89 "Hg2 mi
10:00 AM66 °FPartly sunny.7 mph28%29.89 "Hg2 mi
9:00 AM64 °FHaze.7 mph30%29.89 "Hg2 mi
8:00 AM59 °FHaze.No wind34%29.92 "Hg2 mi
7:00 AM57 °FHaze.3 mph33%29.92 "Hg2 mi
6:00 AM59 °FHaze.3 mph34%29.92 "Hg3 mi
5:00 AM61 °FHaze.7 mph34%29.92 "Hg3 mi
3:00 AM64 °FHaze.12 mph26%29.95 "Hg2 mi
Weather by CustomWeather, © 2015

See weather overviewHow to use our weather pages